Location: Black Swamp Observatory
(41.3920°N, 84.1250°W)
Time: 13:40:23
(UTC-04:00)

Vanguard 2 - Pass Details

Date: 30 January 2022
Orbit: 552 x 2935 km, 32.9° (Epoch: 24 May)

Event Time Altitude Azimuth Distance (km) Brightness Sun altitude
Rises 19:27:37 0° 234° (SW) 3,375 11.9 -18.4°
Reaches altitude 10° 19:29:52 10° 225° (SW) 2,657 11.0 -18.8°
Maximum altitude 19:35:49 39° 158° (SSE) 1,831 9.3 -19.9°
Enters shadow 19:40:14 26° 112° (ESE) 2,712 9.8 -20.7°
